Torna al catalogo

GLOBALSTAR M094

AttivoComunicazioniLEO
NORAD 39074·PAYLOAD·🇺🇸 United States

Lanciato Feb 6, 2013 da Baikonur Cosmodrome

Loading…

Prossimi Passaggi (prossime 24 ore)

TLE

AggiornatoSource: Space-Track

Epoca: Sep 14, 2026, 09:02 UTC

1 39074U 13005C   26257.37651053 -.00000114  00000-0 -57600-4 0  9994
2 39074  51.9938 239.2454 0000316 107.9842 252.1059 12.62264790629730

Traccia GLOBALSTAR M094 in tempo reale con AllMySat

Download on the App Store